Volver al catálogo

STARLINK-33888

ActivoComunicacionesVLEO
NORAD 63860·PAYLOAD·🇺🇸 United States

Lanzado May 7, 2025 desde Cape Canaveral Space Force Station

Loading…

Próximos Pases (próximas 24 horas)

TLE

ActualizadoSource: CelesTrak SupGP

Época: Sep 14, 2026, 20:50 UTC

1 63860C 25093AA  26257.86854167 -.00027291  00000+0 -98867-3 0  2579
2 63860  43.0027  89.5763 0001818 273.2040  89.9997 15.27584626    13

Sigue STARLINK-33888 en tiempo real con AllMySat

Download on the App Store